Location: The Saddle
(36.8333°N, 80.3417°W)
Time: 07:43:46
(UTC-04:00)

Explorer 7 - Visible Passes

Search period start: 08 July 2025 00:00
Search period end: 18 July 2025 00:00
Orbit: 444 x 570 km, 50.3° (Epoch: 07 July)

Date Brightness Start Highest point End Pass type
(mag) Time Alt. Az. Time Alt. Az. Time Alt. Az.
10 Jul 9.4 05:32:27 10° SSE 05:34:21 13° SE 05:36:16 10° E visible
11 Jul 9.3 05:12:39 10° SSE 05:14:51 14° SE 05:17:04 10° E visible
12 Jul 9.2 04:52:54 10° SSE 04:55:21 15° SE 04:57:47 10° E visible
13 Jul 9.1 04:33:31 11° SSE 04:35:49 16° SE 04:38:28 10° E visible
14 Jul 8.9 04:14:58 15° SSE 04:16:16 17° SE 04:19:06 10° E visible
15 Jul 8.8 03:56:21 19° SE 03:56:42 19° SE 03:59:42 10° E visible
15 Jul 7.1 05:31:06 10° WSW 05:35:17 63° NW 05:39:29 10° NE visible
16 Jul 8.8 03:37:39 20° ESE 03:37:39 20° ESE 03:40:16 10° E visible
16 Jul 7.2 05:12:24 16° WSW 05:15:44 59° NW 05:19:55 10° NE visible
17 Jul 9.0 03:18:51 19° ESE 03:18:51 19° ESE 03:20:48 10° E visible
17 Jul 7.3 04:53:36 22° WSW 04:56:10 56° NW 05:00:21 10° NE visible
